Hourly Weather Puhachivka

Today, 8 May, Saturday

Time Temperature Precipitation Wind Pressure Humidity
00:00 +11°C° 0.2 mm 3 mps 735 mmHg 96%
01:00 +12°C° 0.2 mm 2 mps 735 mmHg 97%
02:00 +12°C° 0.2 mm 2 mps 734 mmHg 97%
03:00 +10°C° 0.6 mm 3 mps 735 mmHg 96%
04:00 +10°C° 0.6 mm 3 mps 735 mmHg 95%
05:00 +8°C° 0.6 mm 4 mps 735 mmHg 94%
06:00 +8°C° 0.2 mm 6 mps 736 mmHg 93%
07:00 +6°C° 0.2 mm 7 mps 736 mmHg 91%
08:00 +6°C° 0.2 mm 9 mps 737 mmHg 90%
09:00 +6°C° 0 mm 9 mps 738 mmHg 84%
10:00 +7°C° 0 mm 8 mps 738 mmHg 78%
11:00 +9°C° 0 mm 8 mps 739 mmHg 72%
12:00 +7°C° 0.1 mm 8 mps 739 mmHg 70%
13:00 +7°C° 0.1 mm 8 mps 740 mmHg 68%
14:00 +7°C° 0.1 mm 8 mps 740 mmHg 66%
15:00 +7°C° 0 mm 8 mps 741 mmHg 67%
16:00 +7°C° 0 mm 8 mps 741 mmHg 67%
17:00 +7°C° 0 mm 8 mps 741 mmHg 68%
18:00 +5°C° 0 mm 6 mps 742 mmHg 73%
19:00 +5°C° 0 mm 5 mps 743 mmHg 77%
20:00 +4°C° 0 mm 3 mps 743 mmHg 82%
21:00 +3°C° 0 mm 3 mps 743 mmHg 85%
22:00 +3°C° 0 mm 3 mps 744 mmHg 88%
23:00 +3°C° 0 mm 2 mps 744 mmHg 91%

Tomorrow, 9 May, Sunday

Time Temperature Precipitation Wind Pressure Humidity
00:00 +2°C° 0 mm 3 mps 745 mmHg 91%
01:00 +2°C° 0 mm 3 mps 745 mmHg 91%
02:00 +1°C° 0 mm 3 mps 745 mmHg 92%
03:00 +1°C° 0 mm 3 mps 746 mmHg 91%
04:00 +1°C° 0 mm 3 mps 746 mmHg 91%
05:00 +1°C° 0 mm 3 mps 747 mmHg 90%
06:00 +3°C° 0 mm 3 mps 747 mmHg 82%
07:00 +5°C° 0 mm 3 mps 748 mmHg 75%
08:00 +7°C° 0 mm 4 mps 748 mmHg 67%
09:00 +8°C° 0 mm 4 mps 748 mmHg 62%
10:00 +10°C° 0 mm 3 mps 748 mmHg 56%
11:00 +11°C° 0 mm 3 mps 748 mmHg 51%
12:00 +12°C° 0 mm 3 mps 748 mmHg 49%
13:00 +13°C° 0 mm 3 mps 748 mmHg 46%
14:00 +13°C° 0 mm 3 mps 748 mmHg 44%
15:00 +14°C° 0 mm 2 mps 749 mmHg 45%
16:00 +14°C° 0 mm 2 mps 749 mmHg 46%
17:00 +14°C° 0 mm 2 mps 749 mmHg 47%
18:00 +13°C° 0 mm 1 mps 749 mmHg 51%
19:00 +11°C° 0 mm 1 mps 749 mmHg 55%
20:00 +9°C° 0 mm 0 mps 750 mmHg 59%
21:00 +9°C° 0 mm 1 mps 750 mmHg 61%
22:00 +9°C° 0 mm 1 mps 750 mmHg 62%
23:00 +8°C° 0 mm 1 mps 750 mmHg 63%

Day after tomorrow, 10 May, Monday

Time Temperature Precipitation Wind Pressure Humidity
00:00 +8°C° 0 mm 1 mps 750 mmHg 64%
01:00 +7°C° 0 mm 1 mps 750 mmHg 65%
02:00 +7°C° 0 mm 1 mps 750 mmHg 67%
03:00 +7°C° 0 mm 1 mps 750 mmHg 68%
04:00 +7°C° 0 mm 1 mps 750 mmHg 69%
05:00 +6°C° 0 mm 1 mps 751 mmHg 70%
06:00 +7°C° 0 mm 2 mps 751 mmHg 67%
07:00 +9°C° 0 mm 2 mps 751 mmHg 63%
08:00 +12°C° 0 mm 2 mps 751 mmHg 60%
09:00 +13°C° 0 mm 2 mps 751 mmHg 56%
10:00 +14°C° 0 mm 3 mps 751 mmHg 52%
11:00 +16°C° 0 mm 3 mps 751 mmHg 48%
12:00 +16°C° 0 mm 2 mps 751 mmHg 47%
13:00 +17°C° 0 mm 2 mps 751 mmHg 46%
14:00 +17°C° 0 mm 2 mps 750 mmHg 45%
15:00 +17°C° 0 mm 2 mps 750 mmHg 46%
16:00 +17°C° 0 mm 2 mps 750 mmHg 48%
17:00 +17°C° 0 mm 2 mps 749 mmHg 49%
18:00 +15°C° 0 mm 2 mps 749 mmHg 57%
19:00 +12°C° 0 mm 3 mps 750 mmHg 65%
20:00 +10°C° 0 mm 3 mps 750 mmHg 73%
21:00 +9°C° 0 mm 3 mps 750 mmHg 73%
22:00 +9°C° 0 mm 3 mps 750 mmHg 74%
23:00 +8°C° 0 mm 3 mps 750 mmHg 74%

11 May, Tuesday

Time Temperature Precipitation Wind Pressure Humidity
00:00 +7°C° 0 mm 2 mps 750 mmHg 74%
01:00 +7°C° 0 mm 2 mps 749 mmHg 74%
02:00 +7°C° 0 mm 2 mps 749 mmHg 74%
03:00 +6°C° 0 mm 2 mps 749 mmHg 75%
04:00 +6°C° 0 mm 2 mps 749 mmHg 76%
05:00 +6°C° 0 mm 2 mps 749 mmHg 77%
06:00 +8°C° 0 mm 3 mps 749 mmHg 72%
07:00 +10°C° 0 mm 3 mps 749 mmHg 67%
08:00 +12°C° 0 mm 4 mps 749 mmHg 62%
09:00 +13°C° 0 mm 4 mps 748 mmHg 58%
10:00 +14°C° 0 mm 4 mps 748 mmHg 55%
11:00 +16°C° 0 mm 5 mps 748 mmHg 51%
12:00 +16°C° 0 mm 5 mps 747 mmHg 52%
13:00 +18°C° 0 mm 4 mps 747 mmHg 53%
14:00 +19°C° 0 mm 4 mps 747 mmHg 54%
15:00 +19°C° 0 mm 4 mps 746 mmHg 57%
16:00 +18°C° 0 mm 4 mps 746 mmHg 61%
17:00 +18°C° 0 mm 4 mps 746 mmHg 64%
18:00 +17°C° 0 mm 4 mps 746 mmHg 71%
19:00 +14°C° 0 mm 3 mps 746 mmHg 78%
20:00 +12°C° 0 mm 3 mps 745 mmHg 85%
21:00 +12°C° 0 mm 3 mps 745 mmHg 88%
22:00 +11°C° 0 mm 3 mps 745 mmHg 91%
23:00 +10°C° 0 mm 3 mps 745 mmHg 93%

12 May, Wednesday

Time Temperature Precipitation Wind Pressure Humidity
00:00 +9°C° 0 mm 3 mps 745 mmHg 94%
01:00 +8°C° 0 mm 3 mps 745 mmHg 94%
02:00 +8°C° 0 mm 2 mps 744 mmHg 94%
03:00 +7°C° 0 mm 2 mps 744 mmHg 95%
04:00 +7°C° 0 mm 2 mps 744 mmHg 95%
05:00 +7°C° 0 mm 2 mps 744 mmHg 95%
06:00 +8°C° 0 mm 2 mps 743 mmHg 92%
07:00 +9°C° 0 mm 3 mps 743 mmHg 89%
08:00 +10°C° 0 mm 3 mps 743 mmHg 85%
09:00 +11°C° 0 mm 4 mps 743 mmHg 78%
10:00 +12°C° 0 mm 4 mps 742 mmHg 70%
11:00 +14°C° 0 mm 5 mps 742 mmHg 62%
12:00 +14°C° 0.1 mm 6 mps 742 mmHg 63%
13:00 +13°C° 0.1 mm 6 mps 741 mmHg 64%
14:00 +12°C° 0.1 mm 7 mps 741 mmHg 65%
15:00 +12°C° 0.1 mm 7 mps 741 mmHg 68%
16:00 +11°C° 0.1 mm 7 mps 741 mmHg 71%
17:00 +11°C° 0.1 mm 7 mps 741 mmHg 74%
18:00 +10°C° 0 mm 6 mps 741 mmHg 80%
19:00 +9°C° 0 mm 5 mps 741 mmHg 85%
20:00 +8°C° 0 mm 4 mps 740 mmHg 90%
21:00 +7°C° 0 mm 4 mps 740 mmHg 92%
22:00 +8°C° 0 mm 3 mps 740 mmHg 94%
23:00 +7°C° 0 mm 3 mps 740 mmHg 95%

13 May, Thursday

Time Temperature Precipitation Wind Pressure Humidity
00:00 +7°C° 0.1 mm 3 mps 739 mmHg 95%
01:00 +8°C° 0.1 mm 3 mps 739 mmHg 95%
02:00 +8°C° 0.1 mm 2 mps 739 mmHg 95%
03:00 +8°C° 0.1 mm 2 mps 738 mmHg 96%
04:00 +8°C° 0.1 mm 2 mps 738 mmHg 96%
05:00 +8°C° 0.1 mm 2 mps 738 mmHg 96%
06:00 +9°C° 0.1 mm 2 mps 738 mmHg 94%
07:00 +9°C° 0.1 mm 2 mps 738 mmHg 91%
08:00 +10°C° 0.1 mm 2 mps 737 mmHg 88%
09:00 +11°C° 0.2 mm 3 mps 737 mmHg 82%
10:00 +12°C° 0.2 mm 3 mps 737 mmHg 75%
11:00 +13°C° 0.2 mm 3 mps 737 mmHg 68%
12:00 +14°C° 0.1 mm 4 mps 737 mmHg 66%
13:00 +14°C° 0.1 mm 4 mps 737 mmHg 64%
14:00 +14°C° 0.1 mm 5 mps 737 mmHg 61%
15:00 +14°C° 0 mm 4 mps 737 mmHg 63%
16:00 +14°C° 0 mm 4 mps 737 mmHg 65%
17:00 +14°C° 0 mm 3 mps 737 mmHg 67%
18:00 +13°C° 0.1 mm 3 mps 738 mmHg 74%
19:00 +11°C° 0.1 mm 3 mps 738 mmHg 82%
20:00 +10°C° 0.1 mm 3 mps 738 mmHg 89%
21:00 +10°C° 0.1 mm 2 mps 738 mmHg 91%
22:00 +10°C° 0.1 mm 2 mps 738 mmHg 93%
23:00 +11°C° 0.1 mm 1 mps 738 mmHg 95%
Show more

We Need Your Consent

Meteoprog and our Service Providers may store and access personal data such as cookies, device identifiers or other similar technologies on your device and process such data to personalise content and ads, as well as provide social media features and to analyse the traffic.

  • Store and/or access information on your device

    Cookies, device identifiers or other information can be stored or accessed on your device for the purposes indicated above.

  • Personalised ads and content, ad and content measurement, audience insights, and products development

    Ads and content can be personalised based on a profile. More data can be added to better personalise ads and content. Ad and content performance can be measured. Insights about the audience who saw the ads and content can be derived. Such data can be used to develop or improve user’s experience, systems and software.

By clicking ‘I Agree’ you will allow the use of indicated cookies, device identifiers, web beacons or other similar technologies. Your settings can be changed in the browser on your device.

For certain purposes, legitimate interests may be relied on, rather than consent. You can read more about this in our Privacy and Cookie Policy.